This demonstration page uses our WeatherBlox Daily Observations layout. Learn more.

Left ArrowRight Arrow

Hourly Observations for October 20, 2019

Temp ( °F °C ) Dew Point ( °F °C ) Humidity (%) Winds ( mph kmh ) Pressure ( in mb ) Visibility ( mi km ) Precip ( " mm )
12:53 am 00:53 Clear 53 11.7 30 -1.1 41 41 NE 3 6 29.76 1008 10 16 0.00 0.00
1:53 am 01:53 Clear 51 10.6 30 -1.1 44 44 Calm 29.75 1008 10 16 0.00 0.00
2:53 am 02:53 Clear 52 11.1 31 -0.6 45 45 SE 5 7 29.73 1007 10 16 0.00 0.00
3:53 am 03:53 Clear 50 10 29 -1.7 44 44 SSE 5 7 29.71 1006 10 16 0.00 0.00
4:53 am 04:53 Clear 48 8.9 29 -1.7 48 48 N 3 6 29.70 1006 10 16 0.00 0.00
5:53 am 05:53 Clear 49 9.4 30 -1.1 48 48 SSE 5 7 29.70 1006 10 16 0.00 0.00
6:53 am 06:53 Clear 47 8.3 30 -1.1 52 52 Calm 29.72 1006 10 16 0.00 0.00
7:53 am 07:53 Clear 46 7.8 31 -0.6 56 56 NE 3 6 29.74 1007 10 16 0.00 0.00
8:53 am 08:53 Sunny 54 12.2 34 1.1 47 47 ESE 6 9 29.72 1007 10 16 0.00 0.00
9:53 am 09:53 Sunny 62 16.7 36 2.2 38 38 S 3 6 29.74 1007 10 16 0.00 0.00
10:53 am 10:53 Sunny 74 23.3 40 4.4 29 29 WSW 12 19 29.72 1006 10 16 0.00 0.00
11:53 am 11:53 Sunny 80 26.7 41 5 25 25 SW 18 30 29.69 1005 10 16 0.00 0.00
12:53 pm 12:53 Sunny 84 28.9 40 4.4 21 21 W 20 31 29.66 1005 8 13 0.00 0.00
1:53 pm 13:53 Sunny 86 30 42 5.6 21 21 WSW 21 33 29.63 1003 9 14 0.00 0.00
2:53 pm 14:53 Hazy 88 31.1 41 5 19 19 W 24 39 29.60 1002 6 10 0.00 0.00
3:53 pm 15:53 Sunny 88 31.1 38 3.3 17 17 W 22 35 29.58 1002 7 11 0.00 0.00
4:53 pm 16:53 Hazy 87 30.6 33 0.6 14 14 W 22 35 29.59 1002 5 8 0.00 0.00
5:53 pm 17:53 Hazy 85 29.4 34 1.1 16 16 WSW 24 39 29.59 1002 6 10 0.00 0.00
6:53 pm 18:53 Hazy 83 28.3 31 -0.6 15 15 W 21 33 29.62 1003 6 10 0.00 0.00
7:53 pm 19:53 Hazy 79 26.1 25 -3.9 14 14 W 15 24 29.65 1004 6 10 0.00 0.00
8:53 pm 20:53 Hazy 74 23.3 23 -5 15 15 W 12 19 29.67 1005 6 10 0.00 0.00
9:53 pm 21:53 Clear 70 21.1 23 -5 17 17 W 10 17 29.68 1005 7 11 0.00 0.00
10:53 pm 22:53 Clear 62 16.7 24 -4.4 23 23 N 9 15 29.70 1006 10 16 0.00 0.00
11:53 pm 23:53 Clear 63 17.2 25 -3.9 24 24 N 13 20 29.74 1007 10 16 0.00 0.00

Powered by AerisWeather